DRK400 VNKT-VQPR

Flight info

Callsign DRK400
Flight time N/A
Altitude 37000
Route IGRIS1D KIMTI G348 SUBSU DCT TAKTI DCT PRO
Aircraft A20N/M-SDE2E3FGHIRWXY/LB1

Departure

Time 2026-04-30 08:30
Airport Tribhuvan International Airport (VNKT)

Arrival

Time N/A
Airport Paro International Airport (VQPR)
Time Latitude Longitude Altitude Speed Heading
2026-04-30 07:59 27.69988 85.35838 4401 ft 0 kts 292°
2026-04-30 08:22 27.69978 85.35864 4401 ft 4 kts 292°
2026-04-30 08:22 27.69969 85.35892 4400 ft 4 kts 283°
2026-04-30 08:23 27.69967 85.35921 4400 ft 4 kts 250°
2026-04-30 08:23 27.69981 85.35941 4400 ft 2 kts 202°
2026-04-30 08:23 27.69986 85.35944 4400 ft 0 kts 201°
2026-04-30 08:26 27.69984 85.35943 4400 ft 2 kts 201°
2026-04-30 08:26 27.69948 85.35927 4400 ft 7 kts 201°
2026-04-30 08:26 27.69897 85.35904 4400 ft 9 kts 201°
2026-04-30 08:26 27.69831 85.35874 4400 ft 11 kts 201°
2026-04-30 08:27 27.69754 85.35839 4400 ft 13 kts 202°
2026-04-30 08:27 27.69666 85.35798 4401 ft 14 kts 202°
2026-04-30 08:27 27.69569 85.35754 4401 ft 16 kts 202°
2026-04-30 08:27 27.69457 85.35702 4399 ft 19 kts 202°
2026-04-30 08:28 27.69326 85.35643 4397 ft 21 kts 203°
2026-04-30 08:28 27.69181 85.35579 4393 ft 24 kts 201°
2026-04-30 08:28 27.69069 85.35574 4393 ft 4 kts 115°
2026-04-30 08:28 27.69067 85.35593 4393 ft 3 kts 92°
2026-04-30 08:29 27.69071 85.35632 4394 ft 7 kts 67°
2026-04-30 08:29 27.69104 85.35659 4395 ft 6 kts 26°
2026-04-30 08:29 27.69211 85.35711 4397 ft 44 kts 23°
2026-04-30 08:29 27.69704 85.35935 4399 ft 109 kts 21°
2026-04-30 08:30 27.70616 85.36332 4441 ft 165 kts 20°
2026-04-30 08:30 27.71678 85.36859 5142 ft 168 kts 25°
2026-04-30 08:30 27.72703 85.37546 5736 ft 182 kts 38°
2026-04-30 08:30 27.73607 85.38695 6012 ft 214 kts 60°
2026-04-30 08:31 27.74063 85.40409 6386 ft 241 kts 84°
2026-04-30 08:31 27.74097 85.42330 7171 ft 246 kts 94°
2026-04-30 08:31 27.73741 85.44193 8026 ft 247 kts 114°
2026-04-30 08:31 27.72799 85.45811 8913 ft 249 kts 137°
2026-04-30 08:32 27.71368 85.46902 9827 ft 251 kts 154°
2026-04-30 08:32 27.69702 85.47725 10302 ft 274 kts 159°
2026-04-30 08:32 27.67859 85.48621 10593 ft 303 kts 155°
2026-04-30 08:32 27.65992 85.49942 10906 ft 331 kts 143°
2026-04-30 08:33 27.64325 85.51855 11279 ft 352 kts 128°
2026-04-30 08:33 27.63085 85.54289 11919 ft 363 kts 114°
2026-04-30 08:33 27.62236 85.56995 12648 ft 369 kts 108°
2026-04-30 08:33 27.61485 85.59791 13355 ft 375 kts 107°
2026-04-30 08:34 27.60749 85.62601 14085 ft 380 kts 107°
2026-04-30 08:34 27.59993 85.65480 14798 ft 385 kts 107°
2026-04-30 08:34 27.59187 85.68384 15510 ft 389 kts 110°
2026-04-30 08:34 27.58154 85.71221 16215 ft 393 kts 116°
2026-04-30 08:35 27.56961 85.74010 16902 ft 398 kts 117°
2026-04-30 08:35 27.55719 85.76825 17586 ft 402 kts 117°
2026-04-30 08:35 27.54466 85.79658 18264 ft 406 kts 118°
2026-04-30 08:35 27.53208 85.82523 18782 ft 411 kts 116°
2026-04-30 08:36 27.52104 85.85528 19337 ft 417 kts 110°
2026-04-30 08:36 27.51561 85.87609 19722 ft 421 kts 104°
2026-04-30 08:36 27.50993 85.91998 20483 ft 427 kts 94°
2026-04-30 08:36 27.50881 85.94222 20872 ft 430 kts 93°
2026-04-30 08:37 27.50755 85.97608 21468 ft 434 kts 92°
2026-04-30 08:37 27.50637 86.01028 21992 ft 439 kts 92°
2026-04-30 08:37 27.50473 86.05617 22733 ft 445 kts 92°
2026-04-30 08:37 27.50387 86.07979 23111 ft 448 kts 92°
2026-04-30 08:38 27.50255 86.11497 23639 ft 452 kts 92°
2026-04-30 08:38 27.50120 86.15051 24076 ft 456 kts 92°
2026-04-30 08:38 27.49983 86.18633 24560 ft 459 kts 93°
2026-04-30 08:38 27.49845 86.22199 25016 ft 462 kts 93°
2026-04-30 08:39 27.49660 86.25828 25432 ft 465 kts 97°
2026-04-30 08:39 27.49194 86.29440 25893 ft 467 kts 101°
2026-04-30 08:39 27.48585 86.33039 26268 ft 470 kts 103°
2026-04-30 08:39 27.47895 86.36656 26708 ft 473 kts 104°
2026-04-30 08:40 27.47171 86.40283 27132 ft 476 kts 104°
2026-04-30 08:40 27.46435 86.43934 27545 ft 479 kts 104°
2026-04-30 08:40 27.45703 86.47596 27920 ft 482 kts 104°
2026-04-30 08:40 27.44974 86.51290 28333 ft 484 kts 104°
2026-04-30 08:41 27.44246 86.55016 28726 ft 487 kts 104°
2026-04-30 08:41 27.43521 86.58752 29096 ft 490 kts 104°
2026-04-30 08:41 27.42793 86.62517 29396 ft 493 kts 103°
2026-04-30 08:41 27.42071 86.66245 29821 ft 494 kts 103°
2026-04-30 08:42 27.41338 86.70031 30190 ft 496 kts 103°
2026-04-30 08:42 27.40604 86.73821 30648 ft 495 kts 103°
2026-04-30 08:42 27.39872 86.77594 31155 ft 492 kts 104°
2026-04-30 08:42 27.39139 86.81363 31591 ft 491 kts 104°
2026-04-30 08:43 27.38407 86.85113 32063 ft 490 kts 104°
2026-04-30 08:43 27.37679 86.88847 32578 ft 487 kts 104°
2026-04-30 08:43 27.36950 86.92575 33029 ft 486 kts 104°
2026-04-30 08:43 27.36220 86.96291 33469 ft 486 kts 105°
2026-04-30 08:44 27.35483 87.00031 33661 ft 491 kts 105°
2026-04-30 08:44 27.34748 87.03746 34039 ft 491 kts 105°
2026-04-30 08:44 27.34013 87.07478 34383 ft 488 kts 105°
2026-04-30 08:44 27.33279 87.11212 34643 ft 490 kts 105°
2026-04-30 08:45 27.32538 87.14958 34934 ft 490 kts 105°
2026-04-30 08:45 27.31569 87.18616 35220 ft 486 kts 114°
2026-04-30 08:45 27.30125 87.22049 35511 ft 483 kts 121°
2026-04-30 08:45 27.28477 87.25344 35766 ft 482 kts 123°
2026-04-30 08:46 27.26751 87.28581 36006 ft 483 kts 124°
2026-04-30 08:46 27.24980 87.31790 36245 ft 483 kts 125°
2026-04-30 08:46 27.23192 87.34988 36481 ft 483 kts 125°
2026-04-30 08:46 27.21402 87.38180 36775 ft 482 kts 125°
2026-04-30 08:47 27.19617 87.41372 36885 ft 483 kts 125°
2026-04-30 08:47 27.16084 87.47732 36894 ft 483 kts 124°
2026-04-30 08:48 27.12528 87.54156 36893 ft 483 kts 125°
2026-04-30 08:48 27.08985 87.60552 36902 ft 483 kts 125°
2026-04-30 08:49 27.05434 87.66950 36898 ft 482 kts 125°
2026-04-30 08:49 27.01888 87.73329 36653 ft 479 kts 126°
2026-04-30 08:49 27.00133 87.76488 36198 ft 476 kts 126°
2026-04-30 08:50 26.98402 87.79599 35669 ft 475 kts 126°
2026-04-30 08:50 26.96651 87.82741 35113 ft 475 kts 126°
2026-04-30 08:50 26.94896 87.85891 34548 ft 476 kts 127°
2026-04-30 08:50 26.93138 87.89041 33956 ft 477 kts 127°
2026-04-30 08:51 26.91378 87.92188 33343 ft 476 kts 127°
2026-04-30 08:51 26.89620 87.95331 32680 ft 478 kts 127°
2026-04-30 08:51 26.87849 87.98492 31992 ft 478 kts 126°
2026-04-30 08:51 26.86081 88.01649 31505 ft 479 kts 126°
2026-04-30 08:52 26.84298 88.04828 31237 ft 485 kts 126°
2026-04-30 08:52 26.82494 88.08038 30996 ft 488 kts 126°
2026-04-30 08:52 26.80684 88.11263 30749 ft 488 kts 126°
2026-04-30 08:52 26.78904 88.14440 30507 ft 486 kts 126°
2026-04-30 08:53 26.77100 88.17657 30292 ft 486 kts 126°
2026-04-30 08:53 26.75301 88.20885 30051 ft 486 kts 125°
2026-04-30 08:53 26.73527 88.24106 29778 ft 486 kts 123°
2026-04-30 08:53 26.72120 88.27510 29505 ft 492 kts 111°
2026-04-30 08:54 26.71370 88.31261 29201 ft 497 kts 97°
2026-04-30 08:54 26.71452 88.35134 28928 ft 501 kts 82°
2026-04-30 08:54 26.72429 88.38876 28689 ft 503 kts 65°
2026-04-30 08:54 26.74023 88.42362 28445 ft 504 kts 60°
2026-04-30 08:55 26.75792 88.45754 28179 ft 504 kts 58°
2026-04-30 08:55 26.77646 88.49081 27915 ft 503 kts 57°
2026-04-30 08:55 26.79522 88.52379 27660 ft 501 kts 57°
2026-04-30 08:55 26.81393 88.55675 27414 ft 499 kts 57°
2026-04-30 08:56 26.83235 88.58957 27161 ft 497 kts 57°
2026-04-30 08:56 26.85034 88.62201 26908 ft 496 kts 58°
2026-04-30 08:56 26.86837 88.65481 26321 ft 493 kts 58°
2026-04-30 08:56 26.88609 88.68728 26056 ft 485 kts 58°
2026-04-30 08:57 26.90363 88.71949 25811 ft 484 kts 58°
2026-04-30 08:57 26.91359 88.73783 25679 ft 484 kts 58°
2026-04-30 08:57 26.93110 88.77007 25443 ft 482 kts 58°
2026-04-30 08:58 26.94844 88.80200 24927 ft 479 kts 58°
2026-04-30 08:58 26.96561 88.83379 24385 ft 474 kts 59°
2026-04-30 08:58 26.97856 88.86754 23872 ft 468 kts 75°
2026-04-30 08:58 26.98585 88.90300 23122 ft 467 kts 80°
2026-04-30 08:59 26.99111 88.93853 22333 ft 467 kts 83°
2026-04-30 08:59 26.99521 88.97461 21559 ft 465 kts 84°
2026-04-30 08:59 26.99873 89.01058 20799 ft 463 kts 85°
2026-04-30 08:59 27.00207 89.04639 20031 ft 462 kts 84°
2026-04-30 09:00 27.00545 89.08214 19264 ft 460 kts 84°
2026-04-30 09:00 27.00893 89.11785 18527 ft 459 kts 84°
2026-04-30 09:00 27.01251 89.15326 17784 ft 455 kts 84°
2026-04-30 09:00 27.01607 89.18813 17233 ft 445 kts 83°
2026-04-30 09:01 27.01961 89.22254 16458 ft 442 kts 83°
2026-04-30 09:01 27.02315 89.25665 15922 ft 435 kts 83°
2026-04-30 09:01 27.02661 89.29012 15251 ft 431 kts 83°
2026-04-30 09:01 27.03007 89.32352 14455 ft 429 kts 83°
2026-04-30 09:02 27.03675 89.38853 13454 ft 412 kts 82°
2026-04-30 09:02 27.03999 89.42000 12596 ft 411 kts 83°
2026-04-30 09:02 27.04527 89.45129 11965 ft 405 kts 71°
2026-04-30 09:03 27.05761 89.47926 11291 ft 400 kts 53°
2026-04-30 09:03 27.07773 89.49988 11058 ft 389 kts 29°
2026-04-30 09:03 27.10289 89.51007 11535 ft 381 kts
2026-04-30 09:03 27.12885 89.51299 12536 ft 368 kts
2026-04-30 09:04 27.15410 89.51341 13272 ft 357 kts 356°
2026-04-30 09:04 27.17897 89.51247 13635 ft 360 kts 355°
2026-04-30 09:04 27.20395 89.51088 13712 ft 353 kts 354°
2026-04-30 09:04 27.22789 89.50904 13204 ft 352 kts 354°
2026-04-30 09:05 27.25240 89.50682 12516 ft 355 kts 354°